Tracking 25710 objects as of 5-Jul-2022
HD Live streaming from Space Station
objects crossing your sky now

FENGYUN 1C DEB

Track FENGYUN 1C DEB now!
10-day predictions


NORAD ID: 32425
Int'l Code: 1999-025DAM
Perigee: 680.5 km
Apogee: 1,038.6 km
Inclination: 96.7 °
Period: 102.0 minutes
Semi major axis: 7230 km
RCS: 0.003 m2 (small)
Launch date: May 10, 1999
Source: People's Republic of China (PRC)
Launch site: Taiyaun Space Center, China (TSC)

Note: This is SATELLITE DEBRIS
aabbcc
Your satellite tracking list
Your tracking list is empty




NASA's NSSDC Master Catalog

Two Line Element Set (TLE):
1 32425U 99025DAM 22186.51685877  .00000501  00000-0  21550-3 0  9999
2 32425  96.7261 269.5005 0247634 114.6327 248.0862 14.12044129754943
Source of the keplerian elements: AFSPC